EW3330 Weather Reports


time (UTC)temp
C
wind
direction
speed
KPH
gust
KPH
rain 1hr
cm
rain 24hr
cm
rain mn
cm
humidity
%
barometer
mb
20260504044527 6 50 0.0 0.0 0.00 0.00 0.00 75 1011.6
20260504043035 6 50 0.0 0.0 0.00 0.00 0.00 74 1011.5
20260504041524 6 50 0.0 3.2 0.00 0.00 0.00 73 1011.3
20260504040024 6 50 0.0 0.0 0.00 0.00 0.00 73 1011.1
20260504034520 6 50 0.0 3.2 0.00 0.00 0.00 72 1011.1
20260504033019 6 50 0.0 0.0 0.00 0.00 0.00 71 1011.2
20260504031518 6 50 0.0 0.0 0.00 0.00 0.00 69 1011.2
20260504030024 7 50 0.0 0.0 0.00 0.00 0.00 67 1011.1
20260504024515 7 50 0.0 0.0 0.00 0.00 0.00 64 1011.1
20260504023014 8 50 0.0 0.0 0.00 0.00 0.00 61 1011.2
20260504021514 8 50 0.0 0.0 0.00 0.00 0.00 58 1011.1
20260504020013 8 50 0.0 0.0 0.00 0.00 0.00 56 1011.2
20260504014518 9 50 0.0 0.0 0.00 0.00 0.00 53 1011.1
20260504013029 10 50 0.0 0.0 0.00 0.00 0.00 52 1010.9
20260504011512 10 50 0.0 0.0 0.00 0.00 0.00 48 1010.8
20260504010010 11 50 0.0 0.0 0.00 0.00 0.00 43 1010.6
20260504004510 11 50 0.0 0.0 0.00 0.00 0.00 42 1010.4
20260504003009 12 50 0.0 3.2 0.00 0.00 0.00 40 1010.3
20260504001509 12 50 0.0 3.2 0.00 0.00 0.00 40 1010.0
20260504000008 13 25 0.0 3.2 0.00 0.00 0.00 36 1009.8
20260503234509 13 89 0.0 6.4 0.00 0.00 0.00 36 1009.6
20260503233014 13 123 0.0 8.0 0.00 0.00 0.00 37 1009.5
20260503231507 14 85 0.0 4.8 0.00 0.00 0.00 35 1009.3
20260503230006 14 4 0.0 4.8 0.00 0.00 0.00 34 1009.2
20260503224506 14 140 1.6 12.9 0.00 0.00 0.00 31 1009.1
20260503223006 14 42 0.0 12.9 0.00 0.00 0.00 31 1009.0
20260503221506 15 31 1.6 16.1 0.00 0.00 0.00 31 1009.1
20260503220004 14 131 1.6 8.0 0.00 0.00 0.00 30 1009.1
20260503214503 14 47 4.8 16.1 0.00 0.00 0.00 29 1009.1
20260503213007 15 131 3.2 16.1 0.00 0.00 0.00 29 1009.1
20260503211503 15 11 1.6 17.7 0.00 0.00 0.00 29 1009.0
20260503204600 15 352 1.6 16.1 0.00 0.00 0.00 30 1009.1
20260503203114 15 54 6.4 24.1 0.00 0.00 0.00 28 1008.9
20260503201557 14 67 1.6 16.1 0.00 0.00 0.00 31 1009.2
20260503200054 13 144 4.8 16.1 0.00 0.00 0.00 30 1009.2
20260503194552 13 60 4.8 20.9 0.00 0.00 0.00 31 1009.4
20260503193054 13 38 4.8 22.5 0.00 0.00 0.00 33 1009.6
20260503191553 13 54 1.6 12.9 0.00 0.00 0.00 32 1009.7
20260503190057 13 17 3.2 17.7 0.00 0.00 0.00 33 1009.8
20260503184548 13 81 4.8 20.9 0.00 0.00 0.00 33 1009.9
20260503183047 13 48 3.2 16.1 0.00 0.00 0.00 32 1009.9
20260503181554 13 19 6.4 22.5 0.00 0.00 0.00 35 1010.0
20260503180051 12 347 4.8 16.1 0.00 0.00 0.00 34 1010.1
20260503174543 12 1 1.6 20.9 0.00 0.00 0.00 38 1010.3
20260503173038 11 129 3.2 20.9 0.00 0.00 0.00 37 1010.3
20260503171537 11 58 4.8 17.7 0.00 0.00 0.00 38 1010.6
20260503081557 6 342 0.0 17.7 0.00 0.05 0.00 55 1009.6
20260503071540 7 357 0.0 6.4 0.00 0.05 0.00 56 1009.4